Weather History for Metropolis, IL

Change the Weather History Date:

Friday, December 9, 2011

  Actual Average (KPAH) Record (KPAH)
Temperature  
Mean Temperature 36 °F 39 °F  
Max Temperature 46 °F 48 °F 66 °F (1952)
Min Temperature 26 °F 30 °F 7 °F (1995)
Degree Days  
Heating Degree Days 29 26  
Month to date heating degree days 223  
Since 1 July heating degree days 1000  
Cooling Degree Days 0 0  
Month to date cooling degree days 0  
Year to date cooling degree days 1542  
Moisture  
Dew Point 30 °F    
Average Humidity 85    
Maximum Humidity 100    
Minimum Humidity 57    
Precipitation  
Precipitation 0.00 in 0.16 in 2.03 in (1961)
Month to date precipitation 1.41  
Year to date precipitation 45.90  
Snow  
Snow 0.00 in 0.00 in T in (2008)
Month to date snowfall 0.4  
Since 1 July snowfall 0.5  
Snow Depth -    
Sea Level Pressure  
Sea Level Pressure 30.28 in    
Wind  
Wind Speed 2 mph (NW)    
Max Wind Speed 16 mph    
Max Gust Speed 20 mph    
Visibility 10 miles    
Events      
T = Trace of Precipitation, MM = Missing Value Source: NWS Daily Summary

Daily Weather History Graph

Daily Weather History Graph

Search for Another Location

Airport:

Trip Planner

Search our weather history database for the weather conditions in past years. The results will help you decide how hot, cold, wet, or windy it might be!

Date:

Astronomy

Dec. 09, 2011 Rise Set
Actual Time 6:56 AM CST 4:37 PM CST
Civil Twilight 6:27 AM CST 5:06 PM CST
Nautical Twilight 5:55 AM CST 5:39 PM CST
Astronomical Twilight 5:23 AM CST 6:10 PM CST
Moon 4:01 PM CST (12/9) 6:04 AM CST (12/9)
Length of Visible Light 10h 38m
Length of Day
9h 40m
Waxing Gibbous, 99% of the Moon is Illuminated
Dec 9
Waxing Gibbous
Dec 10
Full
Dec 17
Last Quarter
Dec 24
New
Jan 1
First Quarter

Hourly Weather History & Observations

Time (CST) Temp. Windchill Dew Point Humidity Pressure Visibility Wind Dir Wind Speed Gust Speed Precip Events Conditions
12:15 AM 30.2 °F - 28.4 °F 93% 30.23 in 10.0 mi Calm Calm - N/A   Clear
12:35 AM 28.4 °F - 28.4 °F 100% 30.23 in 10.0 mi Calm Calm - N/A   Clear
12:55 AM 28.4 °F - 28.4 °F 100% 30.22 in 10.0 mi Calm Calm - N/A   Clear
1:15 AM 28.4 °F - 28.4 °F 100% 30.22 in 10.0 mi Calm Calm - N/A   Clear
1:35 AM 28.4 °F - 28.4 °F 100% 30.22 in 10.0 mi Calm Calm - N/A   Clear
1:55 AM 28.4 °F - 28.4 °F 100% 30.22 in 10.0 mi Calm Calm - N/A   Clear
2:15 AM 30.2 °F - 28.4 °F 93% 30.22 in 10.0 mi Calm Calm - N/A   Clear
2:35 AM 28.4 °F - 28.4 °F 100% 30.23 in 10.0 mi Calm Calm - N/A   Clear
2:55 AM 28.4 °F - 26.6 °F 93% 30.23 in 10.0 mi Calm Calm - N/A   Clear
3:15 AM 28.4 °F - 28.4 °F 100% 30.23 in 10.0 mi Calm Calm - N/A   Clear
3:35 AM 28.4 °F - 28.4 °F 100% 30.23 in 10.0 mi Calm Calm - N/A   Clear
3:55 AM 32.0 °F 27.5 °F 28.4 °F 87% 30.23 in 10.0 mi SW 4.6 mph - N/A   Clear
4:15 AM 32.0 °F 28.7 °F 28.4 °F 87% 30.24 in 10.0 mi SW 3.5 mph - N/A   Clear
4:35 AM 28.4 °F - 26.6 °F 93% 30.23 in 10.0 mi Calm Calm - N/A   Clear
4:55 AM 26.6 °F - 26.6 °F 100% 30.24 in 10.0 mi Calm Calm - N/A   Clear
5:15 AM 26.6 °F - 26.6 °F 100% 30.23 in 10.0 mi Calm Calm - N/A   Clear
5:35 AM 26.6 °F - 26.6 °F 100% 30.24 in 10.0 mi Calm Calm - N/A   Clear
5:55 AM 26.6 °F - 26.6 °F 100% 30.24 in 10.0 mi Calm Calm - N/A   Clear
6:15 AM 26.6 °F - 26.6 °F 100% 30.24 in 10.0 mi Calm Calm - N/A   Clear
6:35 AM 26.6 °F - 24.8 °F 93% 30.25 in 10.0 mi Calm Calm - N/A   Clear
6:55 AM 26.6 °F - 26.6 °F 100% 30.25 in 10.0 mi Calm Calm - N/A   Clear
7:15 AM 26.6 °F - 26.6 °F 100% 30.26 in 10.0 mi Calm Calm - N/A   Clear
7:35 AM 26.6 °F - 26.6 °F 100% 30.26 in 10.0 mi Calm Calm - N/A   Clear
7:55 AM 30.2 °F - 28.4 °F 93% 30.27 in 10.0 mi Calm Calm - N/A   Clear
8:15 AM 32.0 °F - 30.2 °F 93% 30.27 in 10.0 mi Calm Calm - N/A   Clear
8:35 AM 32.0 °F - 32.0 °F 100% 30.28 in 10.0 mi Calm Calm - N/A   Clear
8:55 AM 35.6 °F - 32.0 °F 87% 30.29 in 10.0 mi Calm Calm - N/A   Clear
9:15 AM 37.4 °F 34.9 °F 32.0 °F 81% 30.29 in 10.0 mi WSW 3.5 mph - N/A   Clear
9:35 AM 37.4 °F 34.9 °F 32.0 °F 81% 30.29 in 10.0 mi West 3.5 mph - N/A   Clear
9:55 AM 39.2 °F 35.9 °F 32.0 °F 75% 30.29 in 10.0 mi WSW 4.6 mph - N/A   Clear
10:15 AM 39.2 °F 35.0 °F 32.0 °F 75% 30.29 in 10.0 mi West 5.8 mph - N/A   Clear
10:35 AM 41.0 °F 38.0 °F 32.0 °F 70% 30.29 in 10.0 mi SW 4.6 mph - N/A   Clear
10:55 AM 41.0 °F - 32.0 °F 70% 30.29 in 10.0 mi Calm Calm - N/A   Clear
11:15 AM 42.8 °F 41.1 °F 33.8 °F 70% 30.29 in 10.0 mi SSW 3.5 mph - N/A   Clear
11:35 AM 42.8 °F 40.1 °F 33.8 °F 70% 30.29 in 10.0 mi WSW 4.6 mph - N/A   Clear
11:55 AM 44.6 °F 41.4 °F 32.0 °F 61% 30.29 in 10.0 mi NNW 5.8 mph - N/A   Clear
12:15 PM 44.6 °F 41.4 °F 32.0 °F 61% 30.29 in 10.0 mi NNW 5.8 mph - N/A   Clear
12:35 PM 44.6 °F 40.7 °F 32.0 °F 61% 30.29 in 10.0 mi North 6.9 mph - N/A   Clear
1:15 PM 44.6 °F 40.2 °F 32.0 °F 61% 30.29 in 10.0 mi NNW 8.1 mph - N/A   Clear
1:35 PM 46.4 °F 42.4 °F 32.0 °F 57% 30.28 in 10.0 mi North 8.1 mph - N/A   Clear
1:55 PM 46.4 °F 41.9 °F 32.0 °F 57% 30.29 in 10.0 mi NNW 9.2 mph - N/A   Scattered Clouds
2:15 PM 44.6 °F 39.7 °F 32.0 °F 61% 30.29 in 10.0 mi North 9.2 mph - N/A   Overcast
2:35 PM 44.6 °F 39.7 °F 32.0 °F 61% 30.30 in 10.0 mi North 9.2 mph - N/A   Overcast
2:55 PM 42.8 °F 35.8 °F 32.0 °F 66% 30.31 in 10.0 mi North 13.8 mph 19.6 mph N/A   Mostly Cloudy
3:15 PM 41.0 °F 33.9 °F 32.0 °F 70% 30.32 in 10.0 mi NNW 12.7 mph 18.4 mph N/A   Mostly Cloudy
3:35 PM 39.2 °F 31.6 °F 32.0 °F 75% 30.33 in 10.0 mi NNW 12.7 mph - N/A   Scattered Clouds
3:55 PM 37.4 °F 28.2 °F 32.0 °F 81% 30.34 in 7.0 mi NNW 16.1 mph 19.6 mph N/A   Clear
4:15 PM 37.4 °F 29.8 °F 32.0 °F 81% 30.35 in 7.0 mi North 11.5 mph - N/A   Scattered Clouds
4:35 PM 37.4 °F 30.3 °F 32.0 °F 81% 30.36 in 10.0 mi NNW 10.4 mph - N/A   Mostly Cloudy
4:55 PM 35.6 °F 29.2 °F 32.0 °F 87% 30.37 in 10.0 mi NNW 8.1 mph - N/A   Mostly Cloudy
5:15 PM 35.6 °F 29.9 °F 32.0 °F 87% 30.38 in 10.0 mi NNW 6.9 mph - N/A   Overcast
5:35 PM 35.6 °F 28.6 °F 32.0 °F 87% 30.38 in 10.0 mi NNW 9.2 mph - N/A   Overcast
5:55 PM 35.6 °F 30.7 °F 32.0 °F 87% 30.39 in 10.0 mi North 5.8 mph - N/A   Overcast
6:15 PM 35.6 °F 28.6 °F 32.0 °F 87% 30.39 in 10.0 mi North 9.2 mph - N/A   Overcast
6:35 PM 35.6 °F 31.7 °F 32.0 °F 87% 30.41 in 10.0 mi North 4.6 mph - N/A   Overcast
6:55 PM 35.6 °F 29.9 °F 30.2 °F 81% 30.42 in 10.0 mi North 6.9 mph - N/A   Mostly Cloudy
7:15 PM 33.8 °F 28.6 °F 30.2 °F 87% 30.43 in 10.0 mi North 5.8 mph - N/A   Scattered Clouds
7:35 PM 33.8 °F 30.8 °F 30.2 °F 87% 30.43 in 10.0 mi North 3.5 mph - N/A   Mostly Cloudy
7:55 PM 33.8 °F 29.6 °F 30.2 °F 87% 30.44 in 10.0 mi NNW 4.6 mph - N/A   Overcast
8:15 PM 35.6 °F 32.8 °F 30.2 °F 81% 30.44 in 10.0 mi North 3.5 mph - N/A   Overcast
8:35 PM 33.8 °F 27.0 °F 30.2 °F 87% 30.44 in 10.0 mi NNW 8.1 mph - N/A   Mostly Cloudy
8:55 PM 33.8 °F 27.7 °F 30.2 °F 87% 30.45 in 10.0 mi North 6.9 mph - N/A   Clear
9:15 PM 32.0 °F 28.7 °F 28.4 °F 87% 30.45 in 10.0 mi North 3.5 mph - N/A   Clear
9:35 PM 32.0 °F - 28.4 °F 87% 30.45 in 10.0 mi Calm Calm - N/A   Clear
9:55 PM 32.0 °F 28.7 °F 28.4 °F 87% 30.46 in 10.0 mi North 3.5 mph - N/A   Clear
10:15 PM 32.0 °F - 28.4 °F 87% 30.46 in 10.0 mi Calm Calm - N/A   Clear
10:35 PM 32.0 °F - 28.4 °F 87% 30.46 in 10.0 mi Calm Calm - N/A   Clear
10:55 PM 32.0 °F 28.7 °F 28.4 °F 87% 30.46 in 10.0 mi North 3.5 mph - N/A   Clear
11:15 PM 30.2 °F - 28.4 °F 93% 30.47 in 10.0 mi Calm Calm - N/A   Clear
11:35 PM 30.2 °F 26.7 °F 26.6 °F 86% 30.48 in 10.0 mi North 3.5 mph - N/A   Clear
11:55 PM 30.2 °F 25.4 °F 26.6 °F 86% 30.49 in 10.0 mi North 4.6 mph - N/A   Clear